Tracking 35280 objects as of 7-Sep-2026
HD Live streaming from Space Station
objects crossing your sky now

STARLINK-11173

Track STARLINK-11173 now!
10-day predictions
STARLINK-11173 is classified as:


NORAD ID: 60192
Int'l Code: 2024-124K
Launch date: July 3, 2024
Source: United States (US)
Launch site: AIR FORCE EASTERN TEST RANGE (AFETR)
Your satellite tracking list
Your tracking list is empty




NASA's NSSDC Master Catalog

Two Line Element Set (TLE):
1 60192U 24124K   26250.28438217  .00002164  00000-0  22716-4 0  9996
2 60192  53.1593 346.1991 0000546  47.8783 312.2282 15.69702807125059
Source of the keplerian elements: AFSPC